CW9363 Weather Reports


time (UTC)temp
C
wind
direction
speed
KPH
gust
KPH
rain 1hr
cm
rain 24hr
cm
rain mn
cm
humidity
%
barometer
mb
20260505201434 15 53 3.2 3.2 0.00 0.00 0.00 79 1018.8
20260505200932 15 82 1.6 4.8 0.00 0.00 0.00 80 1019.0
20260505200429 15 0 1.6 4.8 0.00 0.00 0.00 80 1019.0
20260505195925 15 294 0.0 1.6 0.00 0.00 0.00 80 1018.8
20260505195422 15 334 0.0 4.8 0.00 0.00 0.00 80 1018.8
20260505194920 15 21 3.2 3.2 0.00 0.00 0.00 80 1019.1
20260505194417 15 354 0.0 3.2 0.00 0.00 0.00 80 1018.8
20260505193917 15 200 0.0 3.2 0.00 0.00 0.00 80 1019.0
20260505193415 15 117 1.6 3.2 0.00 0.00 0.00 80 1019.0
20260505192912 15 57 0.0 4.8 0.00 0.00 0.00 81 1018.8
20260505192410 15 7 1.6 3.2 0.00 0.00 0.00 80 1019.0
20260505191908 14 40 3.2 3.2 0.00 0.00 0.00 81 1018.8
20260505191406 14 30 0.0 3.2 0.00 0.00 0.00 81 1018.8
20260505190903 14 5 0.0 3.2 0.00 0.00 0.00 81 1018.8
20260505190358 14 29 0.0 3.2 0.00 0.00 0.00 81 1019.1
20260505185853 14 0 0.0 1.6 0.00 0.00 0.00 82 1018.8
20260505185350 13 172 0.0 3.2 0.00 0.00 0.00 81 1019.1
20260505184847 14 0 0.0 3.2 0.00 0.00 0.00 82 1019.1
20260505184344 13 74 3.2 3.2 0.00 0.00 0.00 82 1019.2
20260505183841 13 337 0.0 3.2 0.00 0.00 0.00 82 1019.1
20260505183337 13 98 0.0 3.2 0.00 0.00 0.00 82 1019.0
20260505182834 13 101 3.2 4.8 0.00 0.00 0.00 82 1019.1
20260505182331 13 90 1.6 4.8 0.00 0.00 0.00 82 1019.1
20260505181828 13 32 0.0 0.0 0.00 0.00 0.00 82 1019.0
20260505181325 13 75 0.0 3.2 0.00 0.00 0.00 83 1019.0
20260505180822 13 257 1.6 4.8 0.00 0.00 0.00 83 1019.0
20260505180318 13 98 1.6 3.2 0.00 0.00 0.00 84 1018.8
20260505175815 13 90 1.6 4.8 0.00 0.00 0.00 84 1019.1
20260505175311 13 90 0.0 3.2 0.00 0.00 0.00 84 1018.8
20260505174808 13 90 0.0 3.2 0.00 0.00 0.00 84 1018.7
20260505174305 13 78 1.6 3.2 0.00 0.00 0.00 85 1019.0
20260505173801 13 85 3.2 3.2 0.00 0.00 0.00 85 1018.8
20260505173257 12 99 0.0 4.8 0.00 0.00 0.00 84 1018.8
20260505172754 12 107 3.2 3.2 0.00 0.00 0.00 84 1018.7
20260505172252 12 83 1.6 3.2 0.00 0.00 0.00 85 1018.7
20260505171747 12 102 1.6 4.8 0.00 0.00 0.00 85 1019.0
20260505171244 12 26 0.0 3.2 0.00 0.00 0.00 85 1018.7
20260505170740 12 63 1.6 3.2 0.00 0.00 0.00 86 1018.7
20260505170237 12 90 0.0 3.2 0.00 0.00 0.00 85 1019.0
20260505165732 12 75 0.0 3.2 0.00 0.00 0.00 85 1018.8
20260505165229 12 101 3.2 3.2 0.00 0.00 0.00 85 1018.6
20260505164724 12 74 1.6 1.6 0.00 0.00 0.00 86 1018.7
20260505164221 12 90 0.0 3.2 0.00 0.00 0.00 86 1018.5
20260505163720 12 75 1.6 4.8 0.00 0.00 0.00 86 1018.5
20260505163218 12 81 0.0 3.2 0.00 0.00 0.00 85 1018.4
20260505162715 12 106 0.0 3.2 0.00 0.00 0.00 85 1018.5
20260505162212 12 117 3.2 3.2 0.00 0.00 0.00 86 1018.4
20260505161709 12 83 1.6 3.2 0.00 0.00 0.00 86 1018.5
20260505161207 12 77 1.6 3.2 0.00 0.00 0.00 87 1018.4
20260505160704 12 82 1.6 1.6 0.00 0.00 0.00 88 1018.4
20260505160202 12 60 1.6 3.2 0.00 0.00 0.00 87 1018.3
20260505153140 11 66 3.2 3.2 0.00 0.00 0.00 89 1018.3
20260505152637 11 29 1.6 1.6 0.00 0.00 0.00 89 1018.2
20260505152133 11 74 0.0 1.6 0.00 0.00 0.00 89 1018.3
20260505151628 11 66 0.0 0.0 0.00 0.00 0.00 90 1018.4
20260505151126 11 75 0.0 1.6 0.00 0.00 0.00 91 1018.2
20260505150621 11 66 0.0 1.6 0.00 0.00 0.00 92 1018.2
20260505150119 11 29 0.0 1.6 0.00 0.00 0.00 92 1018.2
20260505140547 10 23 0.0 1.6 0.00 0.00 0.00 93 1017.8
20260505125001 10 81 0.0 0.0 0.00 0.00 0.00 94 1017.0
20260505124458 10 81 0.0 1.6 0.00 0.00 0.00 94 1017.0
20260505123954 10 60 0.0 3.2 0.00 0.00 0.00 94 1017.1
20260505123450 10 29 0.0 0.0 0.00 0.00 0.00 93 1017.0
20260505122946 10 29 0.0 3.2 0.00 0.00 0.00 93 1016.8
20260505122443 10 35 0.0 1.6 0.00 0.00 0.00 94 1017.0
20260505121940 10 81 0.0 1.6 0.00 0.00 0.00 94 1016.9
20260505121437 9 74 0.0 3.2 0.00 0.00 0.00 93 1016.8
20260505120933 9 81 0.0 0.0 0.00 0.00 0.00 93 1016.8
20260505120430 9 81 0.0 1.6 0.00 0.00 0.00 93 1016.8
20260505115928 9 90 0.0 1.6 0.00 0.00 0.00 94 1016.8
20260505115425 9 90 0.0 1.6 0.00 0.00 0.00 94 1016.8
20260505114923 8 81 0.0 0.0 0.00 0.00 0.00 94 1016.6
20260505114419 8 81 0.0 0.0 0.00 0.00 0.00 93 1016.7
20260505113916 8 8 0.0 0.0 0.00 0.00 0.00 93 1016.9
20260505113413 8 40 0.0 1.6 0.00 0.00 0.00 93 1016.7
20260505112908 8 81 0.0 1.6 0.00 0.00 0.00 93 1016.7
20260505112406 8 41 3.2 3.2 0.00 0.00 0.00 93 1016.8
20260505111902 8 74 0.0 1.6 0.00 0.00 0.00 93 1016.7
20260505111357 8 90 0.0 0.0 0.00 0.00 0.00 93 1016.9
20260505110854 8 90 0.0 1.6 0.00 0.00 0.00 93 1016.9
20260505110351 8 74 0.0 1.6 0.00 0.00 0.00 93 1016.8
20260505101821 9 128 0.0 3.2 0.00 0.00 0.00 95 1016.4
20260505101317 8 90 1.6 3.2 0.00 0.00 0.00 95 1016.3
20260505100813 8 75 1.6 3.2 0.00 0.00 0.00 95 1016.3
20260505100309 8 81 0.0 0.0 0.00 0.00 0.00 94 1016.5
20260505095805 8 90 1.6 1.6 0.00 0.00 0.00 93 1016.3
20260505095304 8 66 0.0 0.0 0.00 0.00 0.00 93 1016.3
20260505094758 8 66 0.0 0.0 0.00 0.00 0.00 93 1016.2
20260505094255 8 26 0.0 0.0 0.00 0.00 0.00 93 1016.3
20260505093750 8 35 0.0 0.0 0.00 0.00 0.00 92 1016.0
20260505093249 9 90 0.0 1.6 0.00 0.00 0.00 93 1016.0
20260505092745 9 81 0.0 1.6 0.00 0.00 0.00 94 1016.1
20260505092238 9 105 0.0 1.6 0.00 0.00 0.00 94 1015.9
20260505091735 9 75 1.6 1.6 0.00 0.00 0.00 93 1016.1
20260505091233 9 81 0.0 1.6 0.00 0.00 0.00 93 1015.9
20260505090730 9 90 0.0 1.6 0.00 0.00 0.00 93 1016.0
20260505090229 9 99 0.0 0.0 0.00 0.00 0.00 93 1015.9
20260505085726 9 82 0.0 1.6 0.00 0.00 0.00 93 1016.1
20260505085224 9 103 0.0 1.6 0.00 0.00 0.00 94 1015.9
20260505084721 9 90 0.0 1.6 0.00 0.00 0.00 93 1015.7
20260505084220 9 74 0.0 1.6 0.00 0.00 0.00 93 1015.9
20260505083716 9 40 0.0 1.6 0.00 0.00 0.00 93 1015.7
20260505083213 9 99 0.0 0.0 0.00 0.00 0.00 93 1015.9
20260505082709 9 81 0.0 0.0 0.00 0.00 0.00 93 1015.8
20260505082207 9 81 0.0 0.0 0.00 0.00 0.00 92 1015.8
20260505081702 9 35 0.0 3.2 0.00 0.00 0.00 92 1015.7
20260505081200 10 157 0.0 0.0 0.00 0.00 0.00 92 1015.8
20260505080657 10 157 0.0 0.0 0.00 0.00 0.00 92 1015.7
20260505080152 10 66 0.0 0.0 0.00 0.00 0.00 91 1015.6
20260505075649 10 74 0.0 0.0 0.00 0.00 0.00 91 1015.6
20260505075146 10 74 0.0 0.0 0.00 0.00 0.00 91 1015.6
20260505074643 10 74 0.0 0.0 0.00 0.00 0.00 90 1015.4
20260505074139 10 74 0.0 1.6 0.00 0.00 0.00 90 1015.4
20260505073637 10 53 0.0 3.2 0.00 0.00 0.00 89 1015.3
20260505073135 11 20 1.6 1.6 0.00 0.00 0.00 89 1015.3
20260505072630 11 99 0.0 1.6 0.00 0.00 0.00 89 1015.2
20260505072127 11 90 0.0 1.6 0.00 0.00 0.00 89 1015.5
20260505071623 11 90 1.6 3.2 0.00 0.00 0.00 88 1015.1
20260505071121 11 81 0.0 3.2 0.00 0.00 0.00 88 1015.0
20260505070618 11 90 0.0 3.2 0.00 0.00 0.00 87 1015.2
20260505070114 11 29 3.2 3.2 0.00 0.00 0.00 87 1015.1
20260505065610 11 81 0.0 1.6 0.00 0.00 0.00 86 1015.1
20260505065107 12 81 0.0 1.6 0.00 0.00 0.00 85 1015.1
20260505064604 12 66 0.0 0.0 0.00 0.00 0.00 85 1014.9
20260505064102 12 81 0.0 3.2 0.00 0.00 0.00 85 1014.9
20260505063559 12 35 1.6 3.2 0.00 0.00 0.00 84 1014.8
20260505063055 12 71 1.6 3.2 0.00 0.00 0.00 84 1014.8
20260505062552 12 90 1.6 3.2 0.00 0.00 0.00 84 1014.7
20260505062049 12 90 1.6 1.6 0.00 0.00 0.00 84 1014.5
20260505061546 12 90 0.0 1.6 0.00 0.00 0.00 83 1014.5
20260505061044 12 83 1.6 3.2 0.00 0.00 0.00 83 1014.4
20260505060541 12 90 1.6 1.6 0.00 0.00 0.00 82 1014.3
20260505060038 12 66 3.2 3.2 0.00 0.00 0.00 82 1014.2
20260505055533 13 69 0.0 1.6 0.00 0.00 0.00 82 1014.2
20260505055030 13 81 0.0 1.6 0.00 0.00 0.00 81 1014.3
20260505054527 13 29 0.0 1.6 0.00 0.00 0.00 81 1014.1
20260505054026 13 74 0.0 1.6 0.00 0.00 0.00 80 1014.1
20260505053522 13 75 0.0 0.0 0.00 0.00 0.00 79 1014.0
20260505053019 13 81 0.0 1.6 0.00 0.00 0.00 78 1014.2
20260505052516 13 73 0.0 3.2 0.00 0.00 0.00 77 1014.0
20260505052014 14 75 1.6 3.2 0.00 0.00 0.00 77 1014.1
20260505051510 14 60 0.0 3.2 0.00 0.00 0.00 76 1013.9
20260505051009 14 29 1.6 3.2 0.00 0.00 0.00 76 1013.9
20260505050506 14 82 0.0 3.2 0.00 0.00 0.00 75 1014.0
20260505041433 16 20 0.0 3.2 0.00 0.00 0.00 68 1013.5
20260505040931 16 90 0.0 3.2 0.00 0.00 0.00 68 1013.3
20260505040428 16 60 0.0 3.2 0.00 0.00 0.00 67 1013.3
20260505035925 16 36 3.2 3.2 0.00 0.00 0.00 66 1013.4
20260505035421 16 71 0.0 3.2 0.00 0.00 0.00 66 1013.2
20260505034918 16 0 3.2 3.2 0.00 0.00 0.00 65 1013.1
20260505034414 17 12 0.0 3.2 0.00 0.00 0.00 64 1013.1
20260505033912 17 8 0.0 3.2 0.00 0.00 0.00 63 1012.8
20260505033408 17 23 3.2 3.2 0.00 0.00 0.00 63 1012.9
20260505032907 17 0 0.0 3.2 0.00 0.00 0.00 63 1012.6
20260505032402 17 18 0.0 3.2 0.00 0.00 0.00 62 1012.7
20260505031859 17 0 0.0 4.8 0.00 0.00 0.00 61 1012.8
20260505031356 18 0 3.2 4.8 0.00 0.00 0.00 61 1012.5
20260505030854 18 353 1.6 3.2 0.00 0.00 0.00 60 1012.6
20260505030344 18 6 0.0 3.2 0.00 0.00 0.00 58 1012.7
20260505025840 18 334 3.2 4.8 0.00 0.00 0.00 58 1012.7
20260505025338 19 348 3.2 3.2 0.00 0.00 0.00 57 1012.6
20260505024836 20 349 0.0 3.2 0.00 0.00 0.00 56 1012.3
20260505024334 20 352 0.0 3.2 0.00 0.00 0.00 55 1012.1
20260505023830 20 7 0.0 1.6 0.00 0.00 0.00 55 1012.2
20260505023327 20 7 0.0 0.0 0.00 0.00 0.00 55 1012.3
20260505022825 20 0 0.0 3.2 0.00 0.00 0.00 55 1012.3
20260505022321 20 356 0.0 3.2 0.00 0.00 0.00 54 1012.2
20260505021819 21 331 0.0 4.8 0.00 0.00 0.00 54 1012.1
20260505021315 21 7 0.0 3.2 0.00 0.00 0.00 53 1012.1
20260505020810 21 320 0.0 4.8 0.00 0.00 0.00 51 1012.2
20260505020301 21 270 0.0 3.2 0.00 0.00 0.00 51 1012.2
20260505015758 21 287 0.0 4.8 0.00 0.00 0.00 50 1012.3
20260505015254 21 337 0.0 8.0 0.00 0.00 0.00 50 1012.1
20260505014751 22 283 0.0 8.0 0.00 0.00 0.00 49 1012.2
20260505014244 22 0 4.8 4.8 0.00 0.00 0.00 47 1012.2
20260505013739 22 285 0.0 6.4 0.00 0.00 0.00 46 1012.1
20260505013237 22 297 0.0 3.2 0.00 0.00 0.00 47 1012.1
20260505012735 22 277 1.6 3.2 0.00 0.00 0.00 45 1012.5
20260505012232 23 270 1.6 4.8 0.00 0.00 0.00 45 1012.4
20260505011728 23 270 0.0 4.8 0.00 0.00 0.00 43 1012.1
20260505011225 23 352 0.0 8.0 0.00 0.00 0.00 45 1012.4
20260505010721 23 331 3.2 4.8 0.00 0.00 0.00 44 1012.2
20260505010217 23 281 3.2 3.2 0.00 0.00 0.00 43 1012.3
20260505005714 23 270 0.0 4.8 0.00 0.00 0.00 43 1012.3
20260505005211 23 248 3.2 4.8 0.00 0.00 0.00 44 1012.3
20260505004708 23 286 0.0 3.2 0.00 0.00 0.00 44 1012.3
20260505004204 23 283 3.2 4.8 0.00 0.00 0.00 45 1012.3
20260505003702 24 274 3.2 4.8 0.00 0.00 0.00 46 1012.1
20260505003159 24 249 1.6 3.2 0.00 0.00 0.00 48 1012.1
20260505002655 24 348 3.2 6.4 0.00 0.00 0.00 47 1012.2
20260505002153 24 292 0.0 4.8 0.00 0.00 0.00 46 1012.2
20260505001650 24 319 6.4 6.4 0.00 0.00 0.00 47 1012.1
20260505001148 25 337 4.8 6.4 0.00 0.00 0.00 46 1012.3
20260505000645 25 337 0.0 3.2 0.00 0.00 0.00 46 1012.0
20260505000143 25 309 0.0 4.8 0.00 0.00 0.00 47 1012.1
20260504235638 24 333 0.0 6.4 0.00 0.00 0.00 47 1012.2
20260504235129 24 303 0.0 6.4 0.00 0.00 0.00 47 1012.1
20260504234626 25 348 3.2 6.4 0.00 0.00 0.00 48 1012.0
20260504234124 25 283 3.2 4.8 0.00 0.00 0.00 47 1012.1
20260504233620 25 297 0.0 4.8 0.00 0.00 0.00 48 1012.0
20260504233115 25 300 0.0 6.4 0.00 0.00 0.00 47 1012.1
20260504232614 25 345 1.6 4.8 0.00 0.00 0.00 47 1012.1
20260504232110 25 306 1.6 4.8 0.00 0.00 0.00 49 1012.2
20260504231606 25 338 4.8 8.0 0.00 0.00 0.00 49 1012.2
20260504231103 25 345 0.0 6.4 0.00 0.00 0.00 48 1012.2
20260504230558 25 327 0.0 6.4 0.00 0.00 0.00 48 1012.3
20260504230053 25 301 0.0 4.8 0.00 0.00 0.00 48 1012.0
20260504225549 25 339 0.0 9.7 0.00 0.00 0.00 49 1012.2
20260504225046 25 337 6.4 6.4 0.00 0.00 0.00 48 1012.3
20260504224543 25 331 4.8 6.4 0.00 0.00 0.00 48 1012.3
20260504224040 25 0 0.0 6.4 0.00 0.00 0.00 48 1012.3
20260504223537 25 247 4.8 4.8 0.00 0.00 0.00 49 1012.3
20260504223033 25 294 0.0 3.2 0.00 0.00 0.00 49 1012.3
20260504222530 25 301 0.0 4.8 0.00 0.00 0.00 49 1012.5
20260504222027 25 334 3.2 4.8 0.00 0.00 0.00 50 1012.3
20260504221524 25 313 4.8 4.8 0.00 0.00 0.00 47 1012.4
20260504221021 25 245 3.2 8.0 0.00 0.00 0.00 47 1012.5
20260504220517 25 282 0.0 4.8 0.00 0.00 0.00 44 1012.5
20260504220015 25 315 0.0 6.4 0.00 0.00 0.00 47 1012.6
20260504215511 25 328 3.2 4.8 0.00 0.00 0.00 44 1012.6
20260504215009 25 285 1.6 6.4 0.00 0.00 0.00 46 1012.6
20260504214504 25 300 1.6 3.2 0.00 0.00 0.00 46 1012.5
20260504214001 25 270 3.2 4.8 0.00 0.00 0.00 47 1012.6
20260504213457 25 325 1.6 6.4 0.00 0.00 0.00 47 1012.7
20260504212955 25 328 3.2 4.8 0.00 0.00 0.00 48 1012.5
20260504212450 25 297 3.2 4.8 0.00 0.00 0.00 49 1012.7
20260504211948 25 290 0.0 6.4 0.00 0.00 0.00 48 1012.8
20260504211444 25 0 0.0 4.8 0.00 0.00 0.00 48 1012.8
20260504210942 25 323 0.0 3.2 0.00 0.00 0.00 48 1012.7
20260504210438 25 334 0.0 4.8 0.00 0.00 0.00 49 1012.7
20260504205936 24 283 1.6 4.8 0.00 0.00 0.00 49 1013.1
20260504205433 24 297 0.0 4.8 0.00 0.00 0.00 50 1013.1
20260504204931 25 301 3.2 4.8 0.00 0.00 0.00 50 1013.3
20260504204429 25 294 0.0 3.2 0.00 0.00 0.00 49 1012.9
20260504203928 25 353 0.0 4.8 0.00 0.00 0.00 49 1013.2
20260504203425 25 346 3.2 3.2 0.00 0.00 0.00 51 1013.1
20260504202921 25 294 3.2 3.2 0.00 0.00 0.00 51 1013.1
20260504202418 24 7 1.6 4.8 0.00 0.00 0.00 52 1013.2